Date String (YYYY-MM-DD hh:mm:ss) UTC,Instrument flags,absolute air pressure of the measurement (hPa),sample flow rate (lpm),inlet stack bypass flow (lpm),air temperature of the measurement (°C),ambient temperature measured by the external sensor (°C),aerosol sample conditioner tube jacket temperature (°C),OPC LED temperature (°C),internal box temperature (°C),relative humidity of the measurement (%),span deviation,mass concentration of particles derived from Lorenz-Mie calculation of OPC scattering (μg/m³),mass concentration of particles derived from Lorenz-Mie calculation of OPC scattering (μg/m³),mass concentration of particles derived from Lorenz-Mie calculation of OPC scattering (μg/m³)
DateTimeUTC,F1_M11,P_M11,Q1_M11,Q2_M11,T1_M11,T2_M11,T3_M11,T4_M11,T5_M11,U1_M11,ZSPAN_M11,X2_M11,X0_M11,X1_M11
2024-04-16 08:00:00,SystemResetWarning,0815.3,4.99,000.00,023.1,022.5,000.0,031.5,024.9,014.0,0000.0,0000.37,0000.88,0000.22
2024-04-16 08:01:00,SystemResetWarning,0815.3,4.99,000.00,023.1,022.4,000.0,031.5,024.9,014.1,0000.0,0000.40,0001.03,0000.21
2024-04-16 08:02:00,SystemResetWarning,0815.3,4.99,000.00,023.1,022.4,000.0,031.5,024.9,014.0,0000.0,0000.39,0000.99,0000.20
2024-04-16 08:03:00,SystemResetWarning,0815.3,5.01,000.00,023.1,022.4,000.0,031.5,024.9,014.0,0000.0,0000.39,0000.99,0000.19
2024-04-16 08:04:00,SystemResetWarning,0815.3,5.00,000.00,023.1,022.4,000.0,031.5,024.9,014.1,0000.0,0000.39,0000.98,0000.19
2024-04-16 08:05:00,SystemResetWarning,0815.3,5.01,000.00,023.1,022.4,000.0,031.5,024.9,014.1,0000.0,0000.39,0000.98,0000.19
2024-04-16 08:06:00,SystemResetWarning,0815.2,5.00,000.00,023.1,022.4,000.0,031.5,024.9,014.0,0000.0,0000.38,0000.97,0000.18
2024-04-16 08:07:00,SystemResetWarning,0815.3,5.00,000.00,023.1,022.4,000.0,031.5,024.9,013.9,0000.0,0000.37,0000.93,0000.18
2024-04-16 08:08:00,SystemResetWarning,0815.2,4.99,000.00,023.1,022.3,000.0,031.5,024.9,014.0,0000.0,0000.38,0000.94,0000.19
2024-04-16 08:09:00,SystemResetWarning,0815.3,5.00,000.00,023.1,022.3,000.0,031.5,024.9,013.9,0000.0,0000.39,0000.93,0000.19
2024-04-16 08:10:00,SystemResetWarning,0815.3,5.01,000.00,023.1,022.3,000.0,031.5,024.9,013.9,0000.0,0000.43,0001.02,0000.20
2024-04-16 08:11:00,SystemResetWarning,0815.3,5.00,000.00,023.1,022.3,000.0,031.5,024.9,014.0,0000.0,0000.46,0001.04,0000.20
2024-04-16 08:12:00,SystemResetWarning,0815.3,5.00,000.00,023.1,022.3,000.0,031.5,024.9,013.9,0000.0,0000.41,0000.84,0000.20
2024-04-16 08:13:00,SystemResetWarning,0815.2,5.00,000.00,023.1,022.3,000.0,031.5,024.9,013.9,0000.0,0000.41,0000.85,0000.20
2024-04-16 08:14:00,SystemResetWarning,0815.3,5.01,000.00,023.1,022.3,000.0,031.5,024.9,014.0,0000.0,0000.44,0000.91,0000.20
2024-04-16 08:15:00,SystemResetWarning,0815.3,5.00,000.00,023.1,022.3,000.0,031.5,024.9,014.0,0000.0,0000.46,0000.94,0000.20
2024-04-16 08:16:00,SystemResetWarning,0815.3,5.00,000.00,023.1,022.3,000.0,031.5,024.8,014.1,0000.0,0000.47,0000.95,0000.20
2024-04-16 08:17:00,SystemResetWarning,0815.3,4.99,000.00,023.1,022.3,000.0,031.5,024.9,014.1,0000.0,0000.48,0000.92,0000.20
2024-04-16 08:18:00,SystemResetWarning,0815.2,5.00,000.00,023.1,022.3,000.0,031.5,024.9,014.1,0000.0,0000.48,0000.85,0000.20
2024-04-16 08:19:00,SystemResetWarning,0815.2,5.00,000.00,023.1,022.4,000.0,031.5,024.9,014.0,0000.0,0000.47,0000.83,0000.20
2024-04-16 08:20:00,SystemResetWarning,0815.2,4.99,000.00,023.1,022.4,000.0,031.5,024.9,014.0,0000.0,0000.48,0000.98,0000.20
2024-04-16 08:21:00,SystemResetWarning,0815.2,5.00,000.00,023.1,022.4,000.0,031.5,024.9,014.1,0000.0,0000.46,0001.01,0000.20
2024-04-16 08:22:00,SystemResetWarning,0815.1,5.01,000.00,023.1,022.4,000.0,031.5,024.9,014.0,0000.0,0000.41,0000.91,0000.20
2024-04-16 08:23:00,SystemResetWarning,0815.1,5.00,000.00,023.1,022.4,000.0,031.5,024.9,013.9,0000.0,0000.41,0000.92,0000.19
2024-04-16 08:24:00,SystemResetWarning,0815.1,5.00,000.00,023.1,022.4,000.0,031.5,024.9,014.0,0000.0,0000.41,0002.30,0000.21
2024-04-16 08:25:00,SystemResetWarning,0815.1,4.99,000.00,023.1,022.4,000.0,031.5,024.9,014.0,0000.0,0000.39,0002.27,0000.21
2024-04-16 08:26:00,SystemResetWarning,0815.2,4.99,000.00,023.1,022.4,000.0,031.5,024.9,013.8,0000.0,0000.36,0002.23,0000.21
2024-04-16 08:27:00,SystemResetWarning,0815.2,5.00,000.00,023.1,022.4,000.0,031.5,024.9,013.8,0000.0,0000.35,0002.21,0000.22
2024-04-16 08:28:00,SystemResetWarning,0815.1,5.00,000.00,023.1,022.4,000.0,031.5,024.9,013.8,0000.0,0000.35,0002.22,0000.22
2024-04-16 08:29:00,SystemResetWarning,0815.2,5.01,000.00,023.1,022.4,000.0,031.5,024.9,013.8,0000.0,0000.37,0002.25,0000.22
2024-04-16 08:30:00,SystemResetWarning,0815.1,5.00,000.00,023.1,022.4,000.0,031.5,024.9,013.9,0000.0,0000.36,0002.23,0000.23
2024-04-16 08:31:00,SystemResetWarning,0815.2,4.98,000.00,023.1,022.4,000.0,031.5,024.9,013.8,0000.0,0000.36,0002.14,0000.23
2024-04-16 08:32:00,SystemResetWarning,0815.1,5.01,000.00,023.1,022.4,000.0,031.5,024.9,013.9,0000.0,0000.34,0001.96,0000.22
2024-04-16 08:33:00,SystemResetWarning,0815.2,5.01,000.00,023.1,022.4,000.0,031.6,024.9,013.9,0000.0,0000.35,0001.96,0000.23
2024-04-16 08:34:00,SystemResetWarning,0815.1,4.99,000.00,023.1,022.4,000.0,031.6,024.9,013.9,0000.0,0000.38,0001.98,0000.23
2024-04-16 08:35:00,SystemResetWarning,0815.1,4.99,000.00,023.1,022.4,000.0,031.6,024.9,013.9,0000.0,0000.38,0000.78,0000.23
2024-04-16 08:36:00,SystemResetWarning,0815.2,5.00,000.00,023.1,022.4,000.0,031.6,024.9,013.9,0000.0,0000.40,0000.65,0000.22
2024-04-16 08:37:00,SystemResetWarning,0815.1,5.01,000.00,023.2,022.4,000.0,031.6,024.9,013.9,0000.0,0000.40,0000.67,0000.23
2024-04-16 08:38:00,SystemResetWarning,0815.1,5.00,000.00,023.2,022.4,000.0,031.6,025.0,014.0,0000.0,0000.40,0000.66,0000.23
2024-04-16 08:39:00,SystemResetWarning,0815.1,5.01,000.00,023.2,022.4,000.0,031.6,024.9,013.9,0000.0,0000.41,0000.69,0000.22
2024-04-16 08:40:00,SystemResetWarning,0815.1,5.00,000.00,023.2,022.4,000.0,031.6,025.0,014.0,0000.0,0000.41,0000.69,0000.22
2024-04-16 08:41:00,SystemResetWarning,0815.1,5.00,000.00,023.2,022.5,000.0,031.6,025.0,013.9,0000.0,0000.42,0000.73,0000.22
2024-04-16 08:42:00,SystemResetWarning,0815.1,5.00,000.00,023.2,022.4,000.0,031.6,025.0,013.8,0000.0,0000.43,0000.76,0000.22
2024-04-16 08:43:00,SystemResetWarning,0815.1,5.00,000.00,023.2,022.4,000.0,031.6,025.0,013.8,0000.0,0000.47,0000.85,0000.24
2024-04-16 08:44:00,SystemResetWarning,0815.1,5.00,000.00,023.2,022.4,000.0,031.6,025.0,013.8,0000.0,0000.48,0000.92,0000.24
2024-04-16 08:45:00,SystemResetWarning,0815.1,4.99,000.00,023.2,022.4,000.0,031.6,025.0,013.7,0000.0,0000.48,0000.95,0000.24
2024-04-16 08:46:00,SystemResetWarning,0815.2,4.99,000.00,023.2,022.4,000.0,031.6,025.0,013.8,0000.0,0000.46,0000.91,0000.25
2024-04-16 08:47:00,SystemResetWarning,0815.1,5.00,000.00,023.2,022.4,000.0,031.6,025.0,013.8,0000.0,0000.44,0000.84,0000.25
2024-04-16 08:48:00,SystemResetWarning,0815.2,5.00,000.00,023.2,022.4,000.0,031.6,024.9,013.6,0000.0,0000.44,0000.84,0000.25
2024-04-16 08:49:00,SystemResetWarning,0815.2,5.01,000.00,023.2,022.4,000.0,031.6,025.0,013.6,0000.0,0000.46,0000.89,0000.25
2024-04-16 08:50:00,SystemResetWarning,0815.2,5.00,000.00,023.2,022.4,000.0,031.6,025.0,013.6,0000.0,0000.44,0000.84,0000.25
2024-04-16 08:51:00,SystemResetWarning,0815.3,4.99,000.00,023.2,022.4,000.0,031.6,025.0,013.7,0000.0,0000.44,0000.87,0000.26
2024-04-16 08:52:00,SystemResetWarning,0815.3,5.00,000.00,023.2,022.5,000.0,031.6,025.0,013.8,0000.0,0000.43,0000.87,0000.26
2024-04-16 08:53:00,SystemResetWarning,0815.4,5.00,000.00,023.2,022.5,000.0,031.6,025.0,013.8,0000.0,0000.41,0001.12,0000.25
2024-04-16 08:54:00,SystemResetWarning,0815.4,4.99,000.00,023.2,022.5,000.0,031.6,025.0,013.8,0000.0,0000.40,0001.37,0000.25
2024-04-16 08:55:00,SystemResetWarning,0815.5,5.00,000.00,023.2,022.5,000.0,031.6,025.1,013.8,0000.0,0000.38,0001.29,0000.25
2024-04-16 08:56:00,SystemResetWarning,0815.6,4.99,000.00,023.3,022.6,000.0,031.6,025.1,013.8,0000.0,0000.34,0001.19,0000.24
2024-04-16 08:57:00,SystemResetWarning,0815.6,5.00,000.00,023.3,022.6,000.0,031.7,025.1,013.7,0000.0,0000.36,0001.24,0000.24
2024-04-16 08:58:00,SystemResetWarning,0815.6,5.00,000.00,023.3,022.6,000.0,031.7,025.1,013.9,0000.0,0000.37,0001.30,0000.24
2024-04-16 08:59:00,SystemResetWarning,0815.6,5.00,000.00,023.3,022.7,000.0,031.7,025.1,014.1,0000.0,0000.38,0001.34,0000.23
